Regional Weather Roundup
Issued by NWS

Home | Current Version | Previous Version | Graphics & Text | Print | Product List | Glossary On
Versions: 1 2 3 4 5 6 7 8 9 10 11 12 13 14 15 16 17 18 19 20 21 22 23 24 25 26 27 28 29 30 31 32 33 34 35 36 37 38 39 40 41 42 43 44 45 46 47 48 49 50
000
ASUS43 KDMX 280503
RWRIA

WEATHER ROUNDUP FOR IOWA
NATIONAL WEATHER SERVICE DES MOINES IA
1200 AM CDT WED SEP 28 2016

NOTE: "FAIR" INDICATES FEW OR NO CLOUDS BELOW 12,000 FEET WITH NO
SIGNIFICANT WEATHER AND/OR OBSTRUCTIONS TO VISIBILITY.

* - THESE STATIONS ARE NOT NWS STATIONS...THUS NOT UNDER NWS
QUALITY CONTROL.  THEY ALSO DO NOT REPORT WEATHER SUCH
AS PRECIPITATION OR FOG.

IAZ001>003-012>014-020>022-031>034-043>046-280600-
   NORTHWEST IOWA

CITY           SKY/WX    TMP DP  RH WIND       PRES   REMARKS
CARROLL *      MOCLDY    55  45  67 NW6       29.88R
CHEROKEE *     CLEAR     50  42  73 NE3       29.91R
DENISON *      CLEAR     50  46  87 CALM      29.87R
LE MARS *      CLEAR     54  43  66 N6        29.93R
ORANGE CITY *  CLEAR     55  37  50 N9        29.92R
SHELDON *      CLEAR     46  39  76 N6        29.91R
SIOUX CITY     CLEAR     56  46  69 N6        29.91R
SPENCER        PTCLDY    52  41  66 NE12      29.92R
STORM LAKE *   CLEAR     54  39  58 N8G15     29.90R
$$

IAZ055>058-069>071-079>083-090>094-280600-
   SOUTHWEST IOWA

CITY           SKY/WX    TMP DP  RH WIND       PRES   REMARKS
ATLANTIC *     CLEAR     55  46  71 N6        29.87S
AUDUBON *      CLEAR     54  46  76 NW5       29.89R
CLARINDA *       N/A     50  50 100 MISG      29.88S
COUNCIL BLFS * CLEAR     63  48  59 W6        29.88S
CRESTON *      CLEAR     54  46  76 NW7       29.87S
HARLAN  *      CLEAR     55  48  76 N5        29.91S
LAMONI         CLEAR     58  48  69 W8        29.84F
RED OAK *      PTCLDY    52  50  93 S3        29.87S
SHENANDOAH *   CLEAR     55  52  88 CALM      29.88R
$$

IAZ047>049-059>061-072>074-084-280600-
   CENTRAL IOWA

CITY           SKY/WX    TMP DP  RH WIND       PRES   REMARKS
AMES           CLOUDY    57  43  59 N8        29.85R
ANKENY *         N/A    N/A N/A N/A MISG        N/A
BOONE *        CLOUDY    57  39  51 N8        29.85R
CHARITON *       N/A     57  48  72 W8        29.83R
DES MOINES     MOCLDY    63  43  48 N7        29.84R
GRINNELL*      CLOUDY    59  38  46 N5        29.84R
KNOXVILLE *    MOCLDY    61  46  59 N7        29.82R
MARSHALLTOWN   CLOUDY    56  42  59 N7        29.83R
NEWTON *       CLOUDY    59  41  51 N8        29.83R
PELLA *        CLOUDY    58  47  66 N5        29.84R
PERRY *          N/A     56  46  66 NW5       29.86R
$$

IAZ004>006-015-016-023>025-035-036-280600-
   NORTH CENTRAL IOWA

CITY           SKY/WX    TMP DP  RH WIND       PRES   REMARKS
ALGONA *       CLOUDY    54  45  71 N12       29.90R
CLARION *      CLOUDY    54  43  66 N10G18    29.88R
ESTHERVILLE    CLOUDY    51  45  79 N8        29.92R
FORT DODGE *   CLOUDY    55  37  50 N10       29.89R
MASON CITY     CLOUDY    51  44  77 N13       29.89R
FOREST CITY *  CLOUDY    50  43  76 N13       29.89R
WEBSTER CITY * CLOUDY    57  41  54 N10       29.85R
IOWA FALLS *   CLOUDY    57  42  58 N13G18    29.87R
$$

IAZ007>011-017>019-026>030-037>042-050>054-066-280600-
   NORTHEAST IOWA

CITY           SKY/WX    TMP DP  RH WIND       PRES   REMARKS
CEDAR RAPIDS   CLOUDY    58  42  55 N9        29.82R
CHARLES CITY * CLOUDY    50  45  81 N10       29.86S
CLINTON *      CLOUDY    54  48  80 NE14      29.80S
DECORAH *      MOCLDY    46  46 100 N8        29.83R
DUBUQUE        CLOUDY    51  46  83 N6        29.82S
MONTICELLO *   CLOUDY    55  46  71 NE7       29.81S
OELWEIN *      CLOUDY    50  45  81 N9        29.84R
WATERLOO       CLOUDY    53  43  68 N15       29.83R
$$

IAZ064-065-067-068-078-280600-
   EAST CENTRAL IOWA

CITY           SKY/WX    TMP DP  RH WIND       PRES   REMARKS
DAVENPORT      MOCLDY    57  40  52 N12       29.80R
IOWA CITY      CLOUDY    61  39  44 N7        29.81S
MUSCATINE *    CLOUDY    61  41  48 N6        29.79S
QUAD CITIES    CLOUDY    62  40  44 VRB6      29.77S
$$

IAZ062-063-075>077-085>089-095>099-280600-
   SOUTHEAST IOWA

CITY           SKY/WX    TMP DP  RH WIND       PRES   REMARKS
BURLINGTON     CLOUDY    63  46  54 W6        29.76F
FAIRFIELD *    CLOUDY    59  45  58 NW7       29.79R
FORT MADISON * CLOUDY    63  46  55 W5        29.78F
KEOKUK *       MOCLDY    61  50  67 W8        29.77F
OSKALOOSA *      N/A     58  46  63 N7        29.82R
CENTERVILLE *    N/A     57  46  67 CALM      29.83S
OTTUMWA        PTCLDY   N/A N/A N/A N9        29.81R
WASHINGTON *     N/A    N/A N/A N/A MISG        N/A
$$

ABBREVIATIONS USED IN REMARKS
   TC - TEMPERATURES IN CELSIUS
  WCI - WIND CHILL INDEX
   HX - HEAT INDEX
  VSB - VISIBILITY
$$





USA.gov is the U.S. government's official web portal to all federal, state and local government web resources and services.